#time, x, y, z, r, p, y
listening to topic: rapid_position_sample
waiting for Ctrl-C
1349549026.045834, -119.887897606, -51.1821819814, -16.1753884347, 0.767065346241, -0.640700817108, -0.0332112126052
1349549026.145883, -119.88790492, -51.1822055448, -16.1753727038, 0.767042934895, -0.640727043152, -0.0332241244614
1349549026.244994, -119.887911926, -51.1822290673, -16.175357095, 0.767041265965, -0.6407289505, -0.0332252159715
1349549026.346888, -119.887918711, -51.1822526216, -16.1753416103, 0.767070114613, -0.640693545341, -0.0332405231893
1349549026.464792, -119.887925183, -51.1822761729, -16.1753262425, 0.767042398453, -0.640726983547, -0.0332370959222
1349549026.545806, -119.887933891, -51.1822978595, -16.1753120841, 0.767032146454, -0.640739440918, -0.0332330316305
1349549026.645871, -119.887942375, -51.1823196022, -16.1752980283, 0.767044365406, -0.640724956989, -0.0332298129797
1349549026.746011, -119.88795053, -51.182341314, -16.1752840732, 0.767027616501, -0.640745222569, -0.0332251377404
1349549026.844955, -119.887958462, -51.1823629736, -16.1752702221, 0.767013549805, -0.640763044357, -0.0332065410912
1349549026.958967, -119.887966151, -51.1823845899, -16.1752564692, 0.76704210043, -0.6407289505, -0.0332056432962
1349549027.046770, -119.887973702, -51.1824065969, -16.1752415136, 0.767032027245, -0.640741884708, -0.0331881791353
1349549027.145767, -119.887980906, -51.1824285892, -16.1752266611, 0.767019808292, -0.640755653381, -0.0332050845027
1349549027.246738, -119.887987918, -51.1824505571, -16.1752119077, 0.767045855522, -0.640724599361, -0.0332035124302
1349549027.346964, -119.887994602, -51.1824725187, -16.1751972551, 0.767041563988, -0.640729367733, -0.0332098901272
1349549027.464044, -119.888001078, -51.1824944447, -16.1751827042, 0.767033517361, -0.640738844872, -0.0332121104002
1349549027.545748, -119.888009433, -51.1825148233, -16.1751694341, 0.767050087452, -0.640719354153, -0.033206988126
1349549027.645801, -119.888017563, -51.1825351943, -16.1751562494, 0.767055690289, -0.640713751316, -0.0331858731806
1349549027.745759, -119.88802545, -51.1825555413, -16.1751431496, 0.767032146454, -0.640741944313, -0.0331856310368
1349549027.846195, -119.888033128, -51.1825758507, -16.1751301347, 0.767028391361, -0.640747189522, -0.0331710427999
1349549027.956854, -119.888040574, -51.1825961342, -16.1751172036, 0.767043888569, -0.640728533268, -0.0331720784307
1349549028.045919, -119.888047904, -51.1826166765, -16.1751031231, 0.767032504082, -0.640742301941, -0.0331700928509
1349549028.145922, -119.888055019, -51.1826371826, -16.1750891314, 0.767018079758, -0.640758991241, -0.0331802256405
1349549028.244931, -119.888061937, -51.1826575713, -16.1750752277, 0.767033338547, -0.640740811825, -0.033179178834
1349549028.345894, -119.888068638, -51.1826779286, -16.1750614124, 0.767014563084, -0.640763819218, -0.0331692025065
1349549028.460832, -119.888075117, -51.1826982595, -16.175047686, 0.767010331154, -0.640768647194, -0.0331728346646
1349549028.545958, -119.888083235, -51.1827175304, -16.17503512, 0.767054438591, -0.640716195107, -0.0331662781537
1349549028.645821, -119.888091129, -51.1827367322, -16.175022624, 0.767045736313, -0.640726864338, -0.033162754029
1349549028.746939, -119.888098909, -51.1827558991, -16.1750102022, 0.76702362299, -0.640753746033, -0.0331539958715
1349549028.846558, -119.888106569, -51.1827749593, -16.174997854, 0.767037451267, -0.640737473965, -0.0331487692893
1349549028.958834, -119.888114013, -51.1827940013, -16.1749855724, 0.767038583755, -0.640736222267, -0.0331479981542
1349549029.046000, -119.888121435, -51.1828132772, -16.174972195, 0.767026722431, -0.640749454498, -0.0331660918891
1349549029.145803, -119.888128676, -51.1828325112, -16.1749588883, 0.767053723335, -0.640716433525, -0.0331781506538
1349549029.245827, -119.888135818, -51.1828516725, -16.1749456547, 0.767054975033, -0.64071393013, -0.0331986695528
1349549029.346836, -119.888142879, -51.1828708168, -16.1749324906, 0.76703441143, -0.640738129616, -0.0332057289779
1349549029.463885, -119.888149842, -51.1828898805, -16.1749193954, 0.767019510269, -0.640756964684, -0.0331877805293
1349549029.545947, -119.888157704, -51.1829079508, -16.1749077234, 0.76705378294, -0.640716671944, -0.0331735238433
1349549029.645871, -119.888165433, -51.182925993, -16.1748961155, 0.767050147057, -0.640721738338, -0.0331593751907
1349549029.745858, -119.888173131, -51.1829439332, -16.1748845704, 0.767047643661, -0.640724956989, -0.0331551581621
1349549029.845871, -119.888180715, -51.182961852, -16.1748730847, 0.767073094845, -0.640694797039, -0.0331495292485
1349549029.958911, -119.888188181, -51.1829796883, -16.1748616559, 0.767069935799, -0.640697836876, -0.033163331449
1349549030.045894, -119.888195655, -51.1829977366, -16.174849219, 0.767049729824, -0.640721917152, -0.0331660062075
1349549030.145858, -119.888203027, -51.1830157177, -16.1748368443, 0.767061710358, -0.64070725441, -0.0331715196371
1349549030.245860, -119.888210392, -51.183033679, -16.174824532, 0.76707804203, -0.640687942505, -0.0331676825881
1349549030.345840, -119.88821764, -51.183051545, -16.1748122779, 0.767032980919, -0.640741705894, -0.0331712327898
1349549030.462836, -119.888224888, -51.1830693153, -16.1748000881, 0.76704376936, -0.640729188919, -0.0331638976932
1349549030.546810, -119.888232448, -51.1830861666, -16.1747892924, 0.76704543829, -0.640727877617, -0.033149395138
1349549030.648970, -119.888239977, -51.1831029199, -16.1747785515, 0.767028748989, -0.640748381615, -0.0331401191652
1349549030.745931, -119.88824739, -51.1831195873, -16.1747678645, 0.7670353055, -0.640741109848, -0.033128850162
1349549030.845774, -119.888254774, -51.1831361464, -16.1747572346, 0.767055153847, -0.640717208385, -0.0331320799887
1349549030.958922, -119.888262147, -51.1831526257, -16.1747466547, 0.767032206059, -0.640744686127, -0.033131878823
1349549031.045797, -119.888269615, -51.1831693098, -16.1747351364, 0.767025411129, -0.640752196312, -0.0331428125501
1349549031.145888, -119.888277085, -51.1831859848, -16.1747236737, 0.767046868801, -0.640726923943, -0.033136267215
1349549031.248869, -119.888284531, -51.1832025764, -16.17471227, 0.767050802708, -0.640721797943, -0.0331425666809
1349549031.346726, -119.888291971, -51.1832190751, -16.174700925, 0.767032086849, -0.640743911266, -0.0331484638155
1349549031.462740, -119.888299408, -51.1832354859, -16.1746896376, 0.767020523548, -0.640757501125, -0.0331539958715
1349549031.545944, -119.888306717, -51.1832513377, -16.1746793833, 0.767032682896, -0.640742719173, -0.03315776214
1349549031.645925, -119.888314016, -51.1832670885, -16.174669178, 0.767021775246, -0.640756249428, -0.0331493280828
1349549031.746914, -119.888321385, -51.1832828164, -16.1746590234, 0.767037510872, -0.640737354755, -0.0331504121423
1349549031.846056, -119.888328739, -51.183298475, -16.1746489228, 0.767027974129, -0.640748381615, -0.0331581868231
1349549031.960744, -119.888336182, -51.1833140401, -16.1746388717, 0.767012774944, -0.640765488148, -0.0331782139838
1349549032.046741, -119.888343746, -51.1833297879, -16.1746279348, 0.767008781433, -0.640770077705, -0.033181682229
1349549032.146951, -119.888351392, -51.1833454391, -16.1746170537, 0.767032146454, -0.640741765499, -0.03318759799
1349549032.245930, -119.88835903, -51.1833610244, -16.1746062252, 0.76703441143, -0.640738666058, -0.0331958010793
1349549032.345938, -119.888366755, -51.1833765167, -16.1745954485, 0.767015814781, -0.640761196613, -0.0331914573908
1349549032.472945, -119.888374463, -51.1833919227, -16.1745847246, 0.767054021358, -0.64071559906, -0.0331882461905
1349549032.545852, -119.888381316, -51.1834066077, -16.1745752641, 0.767051100731, -0.640718698502, -0.0331960655749
1349549032.646793, -119.888388255, -51.1834212023, -16.174565848, 0.76702439785, -0.640750825405, -0.0331921316683
1349549032.746804, -119.888395181, -51.1834357133, -16.1745564749, 0.767032980919, -0.640740931034, -0.0331849567592
1349549032.846032, -119.888402173, -51.1834501444, -16.1745471429, 0.767033994198, -0.640738785267, -0.0332027487457
1349549032.961881, -119.888409175, -51.1834644912, -16.1745378575, 0.767032265663, -0.640740931034, -0.0332020185888
1349549033.046049, -119.888416361, -51.183479081, -16.1745277557, 0.767028927803, -0.640744626522, -0.0332073830068
1349549033.146738, -119.888423542, -51.1834935917, -16.1745177002, 0.767046153545, -0.640724003315, -0.0332076512277
1349549033.245771, -119.888430797, -51.1835080246, -16.1745076925, 0.767017006874, -0.640759289265, -0.0332000032067
1349549033.345969, -119.888438123, -51.1835223707, -16.1744977309, 0.767024755478, -0.6407507658, -0.0331857576966
1349549033.464548, -119.888445417, -51.183536636, -16.1744878156, 0.767030596733, -0.640743672848, -0.0331874229014
1349549033.545974, -119.888451978, -51.1835501775, -16.1744787842, 0.767009198666, -0.640768647194, -0.0332000851631
1349549033.646140, -119.888458633, -51.1835636087, -16.1744697958, 0.767000377178, -0.640778839588, -0.0332077071071
1349549033.746870, -119.888465287, -51.1835769643, -16.1744608463, 0.767041504383, -0.64072984457, -0.0332024171948
1349549033.845866, -119.888472003, -51.183590259, -16.1744519358, 0.767048418522, -0.64072149992, -0.0332039296627
1349549033.958942, -119.888478709, -51.1836034809, -16.1744430653, 0.767024099827, -0.640749275684, -0.0332287177444
1349549034.045858, -119.888485628, -51.183616906, -16.1744334086, 0.767034232616, -0.640737295151, -0.0332258418202
1349549034.148021, -119.88849253, -51.1836302666, -16.1744237942, 0.767058551311, -0.640708208084, -0.0332258231938
1349549034.246219, -119.888499503, -51.1836435536, -16.1744142231, 0.767035603523, -0.640735208988, -0.0332342721522
1349549034.346982, -119.888506479, -51.1836567414, -16.1744046962, 0.767058312893, -0.640709459782, -0.0332077480853
1349549034.464525, -119.888513495, -51.1836699114, -16.1743952106, 0.767058551311, -0.640709340572, -0.0332036726177
1349549034.546868, -119.888519962, -51.1836825148, -16.1743866018, 0.767044186592, -0.640725851059, -0.0332162603736
1349549034.645781, -119.888526435, -51.183695034, -16.1743780301, 0.767045855522, -0.640723586082, -0.0332226492465
1349549034.746887, -119.888532907, -51.1837075414, -16.1743694937, 0.767054378986, -0.640712022781, -0.0332485325634
1349549034.847141, -119.888539482, -51.1837199601, -16.1743609932, 0.767036318779, -0.640733540058, -0.0332506783307
1349549034.956855, -119.888546051, -51.1837323047, -16.1743525281, 0.767023265362, -0.640748798847, -0.0332577340305
1349549035.045921, -119.888552718, -51.1837447882, -16.1743433184, 0.767043173313, -0.640725135803, -0.033253364265
1349549035.146910, -119.888559452, -51.1837572696, -16.1743341508, 0.767049133778, -0.640718340874, -0.0332467220724
1349549035.246896, -119.888566166, -51.1837696573, -16.1743250294, 0.767022430897, -0.640750586987, -0.0332418382168
1349549035.347747, -119.888572868, -51.183782027, -16.174315948, 0.767066717148, -0.640698671341, -0.0332212485373
1349549035.464476, -119.888579613, -51.1837943139, -16.1743069111, 0.767053663731, -0.640714287758, -0.0332210548222
1349549035.545936, -119.888586243, -51.1838058769, -16.1742986272, 0.76701849699, -0.64075666666, -0.0332162939012
1349549035.645920, -119.888592862, -51.1838173631, -16.1742903783, 0.767050921917, -0.640716612339, -0.0332402139902
1349549035.746890, -119.888599494, -51.1838288364, -16.1742821672, 0.767038047314, -0.640731751919, -0.0332442298532
1349549035.845911, -119.888606205, -51.1838402477, -16.1742739893, 0.767024040222, -0.640748023987, -0.0332544595003
1349549035.959805, -119.888612919, -51.1838515792, -16.1742658472, 0.767004728317, -0.640771865845, -0.0332396365702
1349549036.045817, -119.888619715, -51.1838630995, -16.1742569965, 0.767040729523, -0.640728116035, -0.0332525223494
1349549036.145971, -119.888626511, -51.183874557, -16.174248185, 0.767038047314, -0.640732049942, -0.0332389846444
1349549036.246034, -119.88863328, -51.1838859314, -16.1742394201, 0.767014801502, -0.640759825706, -0.0332394912839
1349549036.345970, -119.888640126, -51.1838972988, -16.1742306945, 0.767035722733, -0.640735507011, -0.0332270786166
1349549036.463794, -119.888646943, -51.1839085868, -16.1742220123, 0.767059504986, -0.640707314014, -0.0332205668092
1349549036.545777, -119.888653802, -51.1839192272, -16.1742140855, 0.767035782337, -0.640735089779, -0.0332339033484
1349549036.645975, -119.88866067, -51.1839298454, -16.1742061969, 0.767089784145, -0.640669584274, -0.0332496315241
1349549036.745899, -119.888667537, -51.1839404064, -16.1741983383, 0.767086386681, -0.640673220158, -0.033256739378
1349549036.845753, -119.888674403, -51.1839508917, -16.1741905111, 0.767056643963, -0.640708684921, -0.0332611873746
1349549036.956775, -119.888681266, -51.1839613064, -16.1741827169, 0.767062664032, -0.640701413155, -0.0332609266043
1349549037.045878, -119.888688221, -51.1839719099, -16.1741742409, 0.767087638378, -0.640672683716, -0.0332393087447
1349549037.150888, -119.888695135, -51.1839824459, -16.1741658034, 0.767082333565, -0.640679717064, -0.0332255624235
1349549037.245820, -119.888702023, -51.1839929207, -16.1741573964, 0.767062306404, -0.64070379734, -0.0332241542637
1349549037.346838, -119.888708901, -51.184003362, -16.1741490249, 0.767091155052, -0.64066952467, -0.0332192443311
1349549037.465366, -119.888715677, -51.1840137512, -16.1741406825, 0.76707816124, -0.640685737133, -0.0332056321204
1349549037.545833, -119.888722406, -51.1840233151, -16.1741329827, 0.767059922218, -0.640707194805, -0.0332129485905
1349549037.645801, -119.888729135, -51.1840328115, -16.1741253123, 0.767107844353, -0.640648722649, -0.0332344584167
1349549037.748868, -119.888735872, -51.1840422438, -16.1741176687, 0.767097055912, -0.64066183567, -0.0332306697965
1349549037.845853, -119.888742596, -51.1840516568, -16.1741100543, 0.767070531845, -0.640692949295, -0.0332432202995
1349549037.960034, -119.888749328, -51.1840609931, -16.1741024663, 0.767090141773, -0.640669941902, -0.0332339182496
1349549038.046755, -119.88875615, -51.1840704797, -16.1740942201, 0.76708906889, -0.640672087669, -0.0332189500332
1349549038.145781, -119.888762864, -51.1840798917, -16.1740860058, 0.767070889473, -0.640693724155, -0.0332203768194
1349549038.245766, -119.888769572, -51.1840892828, -16.1740778294, 0.767081618309, -0.640680551529, -0.0332263372838
1349549038.345919, -119.888776276, -51.1840986672, -16.1740696905, 0.767104327679, -0.640653133392, -0.0332300513983
1349549038.465406, -119.888782889, -51.1841079737, -16.1740615884, 0.767072796822, -0.6406904459, -0.033240031451
1349549038.545995, -119.888789951, -51.1841164298, -16.1740541622, 0.76706725359, -0.640697062016, -0.033238966018
1349549038.645827, -119.888797001, -51.1841248307, -16.1740467731, 0.767084121704, -0.640675961971, -0.0332567468286
1349549038.746053, -119.88880398, -51.1841332419, -16.1740394132, 0.767073690891, -0.640687823296, -0.0332680605352
1349549038.845753, -119.888810964, -51.1841416482, -16.1740320872, 0.767071008682, -0.640691101551, -0.0332673676312
1349549038.959966, -119.888817859, -51.1841500296, -16.1740247998, 0.767094790936, -0.640663564205, -0.0332494676113
1349549039.045945, -119.888824837, -51.1841585545, -16.1740168846, 0.767086148262, -0.640674352646, -0.0332421138883
1349549039.146821, -119.888831718, -51.1841669967, -16.1740090142, 0.76708316803, -0.640678524971, -0.0332298204303
1349549039.246801, -119.888838575, -51.1841754392, -16.1740011864, 0.767086148262, -0.640675008297, -0.0332278274
1349549039.346800, -119.88884534, -51.1841838573, -16.1739934063, 0.767091274261, -0.640668928623, -0.0332281515002
1349549039.463826, -119.888852017, -51.184192272, -16.173985668, 0.767072439194, -0.640690147877, -0.033253274858
1349549039.545863, -119.888859072, -51.1841997237, -16.1739786209, 0.767061591148, -0.640702009201, -0.0332740694284
1349549039.646033, -119.888866064, -51.1842071827, -16.1739716119, 0.767079651356, -0.640680909157, -0.0332647785544
1349549039.746957, -119.888873034, -51.1842146377, -16.1739646462, 0.767056405544, -0.640707671642, -0.0332843624055
1349549039.846890, -119.888879942, -51.1842220802, -16.1739577235, 0.767048239708, -0.640717625618, -0.0332807861269
1349549039.957860, -119.88888676, -51.1842295176, -16.173950847, 0.767073512077, -0.640687465668, -0.0332800596952
1349549040.046854, -119.888893601, -51.1842370776, -16.1739433875, 0.767080307007, -0.640678942204, -0.0332873538136
1349549040.147094, -119.888900361, -51.1842446265, -16.1739359763, 0.767048180103, -0.640717089176, -0.0332933478057
1349549040.245949, -119.888907045, -51.1842521685, -16.1739286096, 0.767059266567, -0.640704274178, -0.0332843139768
1349549040.346846, -119.888913629, -51.1842596974, -16.1739212893, 0.767073869705, -0.640686988831, -0.0332813151181
1349549040.464808, -119.888920122, -51.1842672435, -16.1739140143, 0.767053663731, -0.640710353851, -0.0332962349057
1349549040.546841, -119.888928814, -51.1842363646, -16.1739312879, 0.767061531544, -0.64070057869, -0.0333025529981
1349549040.646192, -119.888937347, -51.1842053733, -16.1739486461, 0.767091095448, -0.640665590763, -0.033295057714
1349549040.746900, -119.888945778, -51.1841743019, -16.1739660914, 0.767082095146, -0.64067620039, -0.0332986861467
1349549040.847152, -119.888954048, -51.1841431135, -16.1739836249, 0.767072796822, -0.640687167645, -0.0333016104996
1349549040.957804, -119.888962157, -51.1841117982, -16.1740012493, 0.767086625099, -0.640671133995, -0.0332914814353
1349549041.046795, -119.88897022, -51.1840797845, -16.1740205628, 0.767073988914, -0.640685796738, -0.033300049603
1349549041.146843, -119.888978204, -51.1840476429, -16.1740399718, 0.767078816891, -0.640679895878, -0.0333023332059
1349549041.248786, -119.888986022, -51.1840153751, -16.1740594738, 0.76712167263, -0.640628576279, -0.0333032570779
1349549041.346943, -119.888993591, -51.1839829888, -16.1740790678, 0.76712089777, -0.64062833786, -0.0333253107965
1349549041.463966, -119.889001019, -51.1839505454, -16.1740987526, 0.767092943192, -0.640661358833, -0.0333338528872
1349549041.547798, -119.889008722, -51.1839193657, -16.1741166642, 0.767109870911, -0.640641272068, -0.0333303250372
1349549041.645860, -119.889016257, -51.1838881322, -16.1741346587, 0.767105996609, -0.64064592123, -0.0333305001259
1349549041.746921, -119.889023557, -51.18385684, -16.1741527392, 0.767077028751, -0.640680968761, -0.0333237871528
1349549041.848719, -119.889030691, -51.1838254816, -16.1741709039, 0.767079591751, -0.640677392483, -0.0333337150514
1349549041.960048, -119.889037601, -51.1837939934, -16.1741891548, 0.767100989819, -0.640651881695, -0.0333310700953
1349549042.046800, -119.889044456, -51.1837618831, -16.1742091431, 0.767085850239, -0.64067029953, -0.0333253927529
1349549042.146746, -119.889051069, -51.1837297206, -16.1742292254, 0.767069995403, -0.640688657761, -0.0333365239203
1349549042.246237, -119.889057457, -51.1836974785, -16.1742494014, 0.767101585865, -0.640651285648, -0.0333285108209
1349549042.345959, -119.889063596, -51.1836651805, -16.1742696682, 0.767097532749, -0.640655338764, -0.0333434194326
1349549042.464897, -119.889069514, -51.1836328356, -16.1742900292, 0.767081439495, -0.640674233437, -0.033349905163
1349549042.547870, -119.889076324, -51.1836016141, -16.1743084989, 0.767101049423, -0.640651583672, -0.0333350785077
1349549042.646731, -119.889082884, -51.1835703237, -16.1743270532, 0.767104566097, -0.640647172928, -0.0333387367427
1349549042.746729, -119.889089216, -51.183538986, -16.1743456903, 0.767082035542, -0.640674114227, -0.0333396606147
1349549042.846896, -119.889095321, -51.1835075777, -16.1743644106, 0.767072916031, -0.640684902668, -0.0333426371217
1349549042.957812, -119.889101201, -51.1834761528, -16.174383211, 0.767101883888, -0.640650391579, -0.0333393774927
1349549043.046903, -119.889112895, -51.1834173918, -16.1744148806, 0.767089247704, -0.640665590763, -0.0333379022777
1349549043.146849, -119.889124089, -51.1833585626, -16.1744466635, 0.76706302166, -0.640696585178, -0.0333451330662
1349549043.246985, -119.889134651, -51.1832996832, -16.1744785604, 0.767101407051, -0.640649914742, -0.0333590470254
1349549043.346832, -119.889144582, -51.1832407725, -16.1745105631, 0.767075657845, -0.640679717064, -0.0333772040904
1349549043.463828, -119.889153912, -51.1831818006, -16.1745426808, 0.767075002193, -0.64068031311, -0.0333817005157
1349549043.547865, -119.889165837, -51.1831259526, -16.1745702631, 0.767103374004, -0.640647411346, -0.0333615392447
1349549043.647108, -119.889177094, -51.1830700719, -16.174597942, 0.767113268375, -0.64063513279, -0.0333688594401
1349549043.747846, -119.889187892, -51.1830141289, -16.1746257187, 0.767083764076, -0.640670776367, -0.0333633981645
1349549043.846834, -119.889198073, -51.1829582207, -16.1746535982, 0.767085790634, -0.64066940546, -0.0333433710039
1349549043.959943, -119.889207599, -51.182902243, -16.1746815763, 0.767105638981, -0.640645802021, -0.0333402343094
1349549044.047206, -119.889216675, -51.182844892, -16.1747133903, 0.767082035542, -0.640674233437, -0.0333367027342
1349549044.147928, -119.889225129, -51.1827875045, -16.1747453102, 0.767101883888, -0.64065092802, -0.033329192549
1349549044.246810, -119.889232797, -51.1827300593, -16.1747773371, 0.767109572887, -0.640641450882, -0.0333326198161
1349549044.347786, -119.889239857, -51.1826725881, -16.174809471, 0.767090260983, -0.64066439867, -0.0333366766572
1349549044.466461, -119.88924617, -51.1826150706, -16.1748417143, 0.767079293728, -0.640677213669, -0.0333433412015
1349549044.547807, -119.889255679, -51.1825607846, -16.1748694785, 0.767103970051, -0.640648424625, -0.0333283692598
1349549044.647295, -119.889264566, -51.182506449, -16.174897336, 0.767065763474, -0.640694022179, -0.033332452178
1349549044.746924, -119.889272886, -51.1824520261, -16.1749252907, 0.767081439495, -0.640674889088, -0.0333384498954
1349549044.847099, -119.889280494, -51.1823975147, -16.1749533443, 0.767099142075, -0.640654206276, -0.0333282016218
1349549044.957826, -119.889287497, -51.1823429394, -16.1749814908, 0.767113387585, -0.640636980534, -0.0333310365677
1349549045.046858, -119.889293887, -51.1822872086, -16.1750134466, 0.767088353634, -0.640666246414, -0.0333445966244
1349549045.146957, -119.889299726, -51.1822314113, -16.175045508, 0.767105817795, -0.640644729137, -0.0333563908935
1349549045.246200, -119.889304862, -51.1821755603, -16.1750776721, 0.767111361027, -0.640638113022, -0.0333560220897
1349549045.351845, -119.889309276, -51.1821196669, -16.1751099346, 0.767083823681, -0.640670597553, -0.0333656854928
1349549045.463785, -119.889312998, -51.1820637402, -16.1751422986, 0.76710152626, -0.640649437904, -0.0333644188941
1349549045.547791, -119.889320687, -51.1820109812, -16.1751702042, 0.767107903957, -0.64064258337, -0.0333495289087
1349549045.646006, -119.889327656, -51.1819581412, -16.1751982045, 0.767082333565, -0.64067363739, -0.0333414785564
1349549045.746869, -119.889334062, -51.1819052427, -16.1752262976, 0.767075479031, -0.640681326389, -0.0333524532616
1349549045.845825, -119.889339807, -51.1818523525, -16.1752544846, 0.76710164547, -0.640650033951, -0.0333507508039
1349549045.957873, -119.88934486, -51.1817994055, -16.1752827632, 0.767080724239, -0.640675067902, -0.0333509743214
1349549046.046894, -119.889349302, -51.1817453254, -16.1753148165, 0.767063558102, -0.640695214272, -0.0333592146635
1349549046.146827, -119.889353075, -51.1816911945, -16.1753469711, 0.767104268074, -0.640646874905, -0.033351380378
1349549046.246928, -119.889356006, -51.1816370273, -16.1753792195, 0.767105638981, -0.640644669533, -0.0333620533347
1349549046.346840, -119.889358275, -51.1815829057, -16.1754115615, 0.767082154751, -0.640672445297, -0.0333684310317
1349549046.462840, -119.889359748, -51.1815287357, -16.1754439928, 0.767114043236, -0.640635073185, -0.0333524234593